Location: Azul
(36.7830°S, 59.8500°W)
Time: 01:10:31
(UTC-03:00)

ISS - Pass Details

Date: 21 June 2019
Orbit: 407 x 418 km, 51.6° (Epoch: 27 June)

Event Time Altitude Azimuth Distance (km) Brightness Sun altitude
Rises 20:23:21 0° 295° (WNW) 2,368 1.1 -29.7°
Reaches altitude 10° 20:25:31 10° 287° (WNW) 1,511 -0.1 -30.1°
Enters shadow 20:26:17 15° 282° (WNW) 1,225 -0.6 -30.3°
